Regional Weather Roundup
Issued by NWS

Home | Current Version | Previous Version | Text Only | Print | Product List | Glossary Off
Versions: 1 2 3 4 5 6 7 8 9 10 11 12 13 14 15 16 17 18 19 20 21 22 23 24 25 26 27 28 29 30 31 32 33 34 35 36 37 38 39 40 41 42 43 44 45 46 47 48 49 50

000
ASUS43 KLOT 020500
RWRIL

ILLINOIS REGIONAL WEATHER ROUNDUP
NATIONAL WEATHER SERVICE CHICAGO/ROMEOVILLE IL
1200 AM CDT THU OCT 02 2014

NOTE: "FAIR" INDICATES FEW OR NO CLOUDS BELOW 12,000 FEET WITH NO
SIGNIFICANT WEATHER AND/OR OBSTRUCTIONS TO VISIBILITY.

* THESE STATIONS ARE NOT UNDER NWS QUALITY CONTROL. THEY ALSO MAY NOT
  REPORT WEATHER SUCH AS PRECIPITATION OR FOG.

ILZ001-002-007-009-015-016-024-020600-
NORTHWEST ILLINOIS

CITY           SKY/WX    TMP DP  RH WIND       PRES   REMARKS
MOLINE         CLOUDY    63  60  90 CALM      29.84R FOG
$$

ILZ003-004-008-010-011-017-018-020600-
NORTH CENTRAL ILLINOIS

CITY           SKY/WX    TMP DP  RH WIND       PRES   REMARKS
ROCKFORD       CLOUDY    64  54  69 SE5       29.89S
FREEPORT*      CLOUDY    62  56  79 SE5       29.89R
$$

ILZ005-006-012>014-019>023-020600-
NORTHEAST ILLINOIS

CITY           SKY/WX    TMP DP  RH WIND       PRES   REMARKS
CHICAGO-OHARE  CLOUDY    65  52  62 SE9       29.88F
CHICAGO-MIDWAY NOT AVBL
AURORA         CLOUDY    66  55  67 SE6       29.89S
LANSING*       CLOUDY    64  51  64 SE8       29.90F
WAUKEGAN       NOT AVBL
DUPAGE AIRPORT CLOUDY    66  54  65 SE6       29.88F
WHEELING       CLOUDY    65  53  65 CALM      29.90F
NORTHERLY ISL    N/A     64  55  72 SE9         N/A
$$

LMZ740>746-020600-
SOUTHERN LAKE MICHIGAN

STATION/POSITION SKY/WX   TEMP    WIND        PRES    VSBY  WAVE
                          AIR SEA DIR/SP/G                  HT/PER
                          (F)     (DEG/KT/KT) (MB)    (MI)  (FT/S)
SOUTHERN BUOY              63 62  140/ 17/ 19 1013.4F         2/ 4
WAUKEGAN HARBOR            62     160/  8/ 10   N/A
HARRISON CRIB              64     140/ 18/ 21   N/A
BURNHAM HARBOR             64     140/  7/ 10   N/A
CALUMET HARBOR             66     140/  8/ 14 1011.4F
BURNS HARBOR               65     140/ 10/ 22   N/A
MICHIGAN CITY              63     120/ 12/ 15   N/A
MICHIGAN CITY 6N           65 64  140/ 16/ 19   N/A           2/ 2
ST. JOSEPH                 63 63  120/ 16/ 21   N/A           2/ 2
$$

ILZ025>027-034>036-040-047-049-050-058-095>099-020600-
WEST-CENTRAL ILLINOIS

CITY           SKY/WX    TMP DP  RH WIND       PRES   REMARKS
QUINCY         CLOUDY    67  65  93 S12       29.79F
$$

ILZ028>032-037-038-041>044-048-051>054-059>061-020600-
CENTRAL ILLINOIS

CITY           SKY/WX    TMP DP  RH WIND       PRES   REMARKS
DECATUR        RAIN      67  64  90 W12       29.91F
PEORIA         CLOUDY    70  64  81 S14       29.85R HAZE
SPRINGFIELD    TSTM      67  64  90 S7        29.88F
TAYLORVILLE    NOT AVBL
$$

ILZ033-039-045-046-055>057-062-063-020600-
EAST-CENTRAL ILLINOIS

CITY           SKY/WX    TMP DP  RH WIND       PRES   REMARKS
MATTOON        CLOUDY    69  58  67 SE7       29.90S
$$

ILZ079-100>102-020600-
SOUTHWEST ILLINOIS

CITY           SKY/WX    TMP DP  RH WIND       PRES   REMARKS
BELLEVILLE     LGT RAIN  70  70  99 CALM      29.86F
CAHOKIA*       HVY RAIN  71  69  93 NW5       29.86F VSB 1
SPARTA*        CLOUDY    73  63  72 SE5       29.89S
$$

ILZ064>066-069>071-074>076-080>082-084>086-088>090-092>094-020600-
SOUTH-CENTRAL ILLINOIS

CITY           SKY/WX    TMP DP  RH WIND       PRES   REMARKS
CARBONDALE     CLOUDY    70  61  73 SE6       29.89F
$$

ILZ067-068-072-073-078-083-087-091-020600-
SOUTHEAST ILLINOIS

CITY           SKY/WX    TMP DP  RH WIND       PRES   REMARKS
LAWRENCEVILLE  MOCLDY    66  58  75 S6        29.93S
ROBINSON*      MOCLDY    63  60  90 CALM      29.93S
$$

ABBREVIATIONS USED IN REMARKS
   TC - TEMPERATURE IN CELSIUS
  WCI - WIND CHILL INDEX
   HX - HEAT INDEX
  VSB - VISIBILITY
$$



USA.gov is the U.S. government's official web portal to all federal, state and local government web resources and services.